Wind_Speed
10 12 13 13 14 15 16 17 18 19 20 21 21 19 19 19 19 20 21 22 22 22 25 25 25 24 24 23 22 21 19 21 24 21 20 20 14 29 33 34 24 17 43 48 37 31 26 33 28 29 44 30 37 30
10 11 13 15 17 18 19 20 22 23 24 23 22 20 20 21 22 23 23 23 25 24 27 24 25 26 26 27 25 22 20 23 22 25 22 20 17 33 29 22 19 29 39 41 33 27 25 33 42 36 17 31 50 43
17 17 18 20 21 23 24 25 25 25 25 24 24 22 22 23 24 26 27 27 28 28 27 30 29 28 27 27 28 24 24 25 25 27 27 25 21 21 29 21 20 37 38 29 34 34 38 36 45 46 46 30 16 38
20 21 22 22 23 24 25 26 25 25 25 26 27 26 26 25 25 26 28 29 31 33 31 31 33 32 33 31 31 29 28 29 26 26 28 25 24 23 22 30 26 34 39 31 34 36 34 25 49 37 16 34 37 34
20 20 21 20 20 20 20 18 18 20 24 27 28 27 27 27 28 29 31 34 37 38 38 34 37 36 34 36 33 34 32 31 27 27 30 26 26 27 29 22 23 31 32 30 31 22 20 34 35 69 10 24 32 34
18 18 18 18 18 19 22 26 27 27 27 27 24 24 25 27 30 30 28 29 31 33 34 32 33 33 33 33 36 36 36 35 34 30 27 28 26 31 30 21 23 16 19 26 14 34 40 19 13 12 25 30 34 36
20 20 20 20 21 23 22 24 27 25 22 23 22 22 23 24 25 29 32 32 30 30 30 29 29 32 32 36 35 36 37 35 36 34 30 29 28 32 30 25 23 25 21 25 28 33 18 15 8 22 34 32 33 33
23 21 20 20 22 22 23 25 26 23 22 20 20 22 23 23 26 28 26 26 27 25 30 32 31 32 40 43 39 36 36 36 34 34 33 30 30 33 30 25 28 26 26 30 14 10 19 20 29 39 34 36 38 38
23 23 22 21 21 22 24 26 24 23 20 20 22 23 21 20 22 23 22 22 23 26 28 29 27 34 25 23 24 26 32 34 31 32 33 33 32 34 26 29 31 28 30 30 26 25 23 26 32 23 28 36 39 40
23 23 22 21 21 22 24 25 22 20 18 21 22 21 19 23 23 23 20 22 23 23 25 23 21 17 24 11 15 27 26 28 29 29 31 35 32 30 33 32 30 31 33 32 27 24 24 23 25 24 26 28 32 37
23 23 22 20 21 23 23 22 21 17 18 21 20 19 20 22 21 21 20 20 21 22 23 27 22 13 20 17 6 21 14 30 31 25 29 33 31 32 35 33 30 34 34 32 28 26 22 21 20 19 20 24 26 35
23 22 22 20 21 21 21 21 18 15 18 19 19 19 21 24 22 22 21 23 23 25 25 22 20 15 4 13 20 23 26 13 12 15 22 28 28 34 33 32 39 41 36 31 27 26 25 22 19 18 20 29 30 25
22 20 22 20 20 20 20 20 17 15 18 19 19 19 20 22 20 21 21 20 24 24 24 22 19 15 12 7 16 21 21 18 20 22 20 19 23 28 34 30 16 40 34 30 29 26 25 24 23 20 20 23 18 24
21 20 21 18 19 18 19 18 15 16 18 18 18 19 20 21 19 20 22 22 22 22 23 23 22 18 14 10 10 13 20 20 21 20 24 22 24 27 27 20 17 27 26 27 26 26 26 26 25 24 24 23 22 29
20 20 19 18 17 17 17 17 15 15 17 17 19 18 20 21 22 22 22 21 20 21 24 24 23 19 17 12 12 13 11 13 15 16 20 23 22 23 22 20 20 22 24 25 26 26 26 26 25 25 26 26 25 26
19 20 18 18 17 16 17 16 15 15 16 16 18 20 21 21 21 21 21 20 22 23 24 24 21 19 20 19 14 14 16 16 16 18 19 21 22 12 11 11 17 20 21 23 26 28 29 28 27 26 27 25 23 25
19 20 18 20 18 16 16 15 16 14 14 16 17 18 21 22 23 23 22 20 22 22 25 25 23 18 23 24 19 19 17 20 24 21 24 25 21 16 14 16 20 21 22 23 24 26 28 29 29 29 26 28 40 24
19 21 19 18 15 16 15 16 15 15 15 16 18 19 19 20 20 21 17 19 22 22 24 25 21 17 19 21 22 21 19 19 23 27 29 26 20 20 21 22 20 21 23 24 23 25 27 29 29 27 29 28 34 26
19 21 20 16 15 15 15 15 14 14 16 16 17 17 18 20 19 21 17 20 20 22 23 24 24 26 19 16 19 17 19 17 15 18 20 23 22 23 21 20 22 22 21 23 26 26 27 31 30 32 32 45 31 27
19 18 15 15 14 14 14 14 13 14 15 15 15 17 17 20 20 18 17 18 17 20 20 26 25 30 13 12 13 13 15 17 18 18 18 18 20 21 21 20 20 19 19 23 26 26 27 30 32 34 31 31 40 27
18 15 14 14 13 14 14 13 13 13 14 14 15 16 17 17 18 17 16 15 15 19 20 26 22 23 11 13 13 10 11 13 14 15 17 18 18 18 18 17 17 20 21 21 22 23 24 26 29 32 35 28 22 22
15 15 13 13 12 13 14 13 13 13 13 13 14 16 16 17 16 14 18 14 14 19 18 22 18 12 11 12 8 7 6 5 5 5 6 9 13 15 14 13 15 15 14 15 16 20 22 24 27 33 33 42 24 21
15 15 12 12 13 13 13 13 12 12 13 13 13 15 17 16 16 17 16 13 14 18 17 18 17 24 12 5 10 11 6 4 7 5 3 2 8 13 18 20 19 16 14 13 15 19 20 19 21 27 27 35 13 18
15 13 12 12 13 12 12 12 12 12 12 12 14 14 15 16 17 15 11 10 12 15 15 16 18 22 18 13 12 11 9 7 4 9 7 8 11 12 15 14 12 13 16 14 12 14 24 20 19 22 19 18 21 17
12 12 12 12 12 12 12 11 12 12 11 12 13 13 13 14 13 14 9 8 10 12 12 13 14 18 21 9 6 9 9 9 5 5 5 5 10 8 11 9 1 8 11 15 15 15 22 21 18 18 16 18 13 11
12 10 12 12 12 13 13 12 12 11 11 10 10 12 13 13 12 11 12 7 5 9 7 6 12 14 20 11 11 6 9 11 5 2 3 2 4 6 9 14 17 20 23 27 28 22 20 19 21 24 24 25 18 18
12 11 12 11 12 13 13 13 11 11 11 10 10 11 13 12 11 11 10 5 5 6 5 3 6 8 12 16 18 17 17 17 18 18 18 18 16 13 13 15 16 11 11 11 12 13 12 7 8 8 7 3 5 6
12 10 10 11 13 13 12 14 10 10 9 9 10 12 12 10 10 10 7 5 7 5 3 4 4 4 4 4 12 10 7 11 11 13 13 13 15 16 17 17 18 18 17 16 15 13 11 9 7 4 2 5 6 8
10 10 10 12 13 12 12 12 9 8 8 8 10 10 10 10 9 9 9 8 7 7 4 3 3 2 1 2 4 11 10 9 7 8 10 10 12 12 12 12 11 11 10 8 7 4 2 1 2 3 5 7 10 12
10 10 11 12 12 11 8 8 9 9 9 8 9 9 11 6 6 6 9 9 8 7 7 5 4 4 2 1 2 2 2 3 3 6 7 7 8 9 9 9 8 9 9 9 9 8 7 6 7 7 7 8 8 10
10 10 10 10 9 8 8 8 8 9 10 10 7 6 6 7 6 5 5 8 8 7 7 6 4 4 3 4 2 3 1 2 2 2 3 4 5 6 4 5 7 10 10 10 11 11 11 11 11 11 12 12 13 15
9 9 9 9 7 7 7 4 10 11 12 11 8 6 5 5 4 4 5 10 12 11 10 7 6 5 4 5 3 3 1 1 3 4 5 6 6 3 5 9 10 12 12 12 11 11 11 11 11 12 13 15 16 16
8 8 8 7 9 10 10 11 10 11 9 9 7 7 5 4 4 4 4 3 6 8 8 7 7 6 7 8 7 5 5 5 6 7 8 5 5 8 11 12 12 11 10 9 9 10 10 11 12 13 13 13 11 10
Wind_Direction
291 292 293 294 296 299 303 307 310 311 312 312 309 303 299 298 295 289 285 283 280 277 271 267 264 265 263 262 263 264 258 255 257 261 263 265 254 252 251 261 256 266 228 229 229 232 248 226 209 223 227 198 219 207
295 297 301 302 301 302 304 305 305 306 306 306 307 303 300 297 293 291 289 286 282 278 278 271 266 263 259 257 255 256 255 256 256 256 256 246 235 260 260 282 286 218 220 229 241 248 231 221 204 208 208 198 211 201
289 292 294 296 299 300 302 302 302 302 302 300 300 297 297 297 295 293 291 287 282 279 276 278 273 264 260 256 253 250 253 253 250 254 254 259 265 271 286 263 245 247 231 258 237 240 255 242 237 203 199 222 186 193
286 289 292 295 299 302 303 302 301 301 301 300 299 298 296 296 293 292 292 292 291 289 284 277 274 272 266 260 253 247 245 252 255 257 256 252 259 262 258 266 249 241 238 268 249 247 259 237 222 219 147 179 215 211
287 289 291 295 299 306 314 318 316 312 308 303 302 298 293 292 293 292 292 293 290 288 286 284 280 275 269 259 257 254 245 241 244 245 251 252 247 254 260 266 277 262 288 295 258 255 266 227 240 226 109 174 207 207
289 292 294 295 299 303 310 312 308 307 306 305 305 303 300 299 302 302 302 300 297 294 291 285 281 277 272 266 259 253 246 243 244 244 245 247 245 249 258 257 245 322 269 276 305 281 275 265 79 181 197 211 208 206
286 287 290 293 297 302 307 313 318 316 312 311 310 308 311 313 312 311 308 305 302 299 299 296 287 276 270 269 261 254 247 246 243 240 240 240 242 247 250 249 251 255 267 262 296 302 272 274 270 217 200 213 217 218
281 284 288 292 298 302 304 308 320 316 313 312 312 314 315 316 320 316 315 314 313 314 314 307 301 286 284 276 252 249 247 240 241 239 237 238 236 243 246 250 250 256 261 260 269 300 249 247 249 216 213 219 223 226
278 282 284 291 297 302 305 310 314 314 312 313 317 318 314 319 327 329 328 326 322 322 327 324 310 299 279 238 224 216 228 238 237 238 237 236 235 238 240 240 245 245 249 257 266 279 272 263 258 273 237 235 235 238
279 277 281 286 294 300 310 313 311 312 310 315 320 319 312 317 315 323 331 335 332 329 332 334 337 324 248 216 222 249 220 236 236 236 237 238 237 237 236 237 238 245 248 253 257 262 271 262 270 267 260 250 248 253
277 272 275 282 290 299 310 308 310 306 311 319 323 318 316 319 314 315 323 331 335 339 342 354 346 357 225 242 268 193 221 227 227 232 236 237 237 238 239 234 232 238 244 251 255 253 256 265 260 259 261 251 244 243
275 267 269 277 287 295 307 305 306 302 313 322 320 318 320 315 314 315 312 317 328 341 345 343 349 349 305 243 248 255 259 288 268 238 237 240 242 242 242 239 233 230 229 236 244 250 256 261 267 260 238 259 227 271
270 263 264 273 284 292 301 303 296 297 312 322 320 318 322 331 316 319 321 320 327 330 330 335 333 331 344 309 251 252 254 253 260 251 259 253 248 244 249 237 243 221 228 227 232 239 244 246 245 250 254 262 263 238
265 256 258 271 281 292 297 300 286 291 309 319 320 318 322 328 326 318 318 324 327 325 327 324 325 324 316 314 314 256 242 248 255 257 255 252 248 253 258 249 216 222 231 233 235 236 239 241 240 241 243 247 254 268
258 253 255 269 279 292 294 295 280 287 306 315 316 318 320 323 323 321 325 326 325 323 325 320 314 311 306 295 285 293 279 245 263 256 258 257 259 264 264 265 238 233 235 237 239 238 238 238 240 239 242 244 244 252
250 248 251 262 280 292 291 290 277 284 303 313 316 318 322 323 323 323 325 329 332 328 332 330 317 304 299 299 288 267 269 276 273 264 267 253 257 286 290 251 239 239 241 242 241 240 240 237 238 243 243 244 249 248
244 244 254 269 276 287 286 285 274 283 300 309 314 318 319 322 323 319 319 322 322 324 320 324 314 300 293 283 278 270 265 264 255 257 260 267 265 253 243 241 239 240 241 243 242 243 244 239 237 241 249 251 238 229
238 244 253 270 276 281 280 281 274 282 295 306 314 319 318 324 331 330 324 315 318 317 324 325 318 313 297 273 270 265 269 273 262 251 252 258 257 252 247 247 246 242 241 239 241 240 240 240 239 236 235 236 242 244
241 248 260 264 273 277 279 281 278 284 293 303 306 314 320 326 328 321 319 321 322 328 325 325 327 321 298 276 261 282 261 265 261 261 253 253 254 252 257 250 243 240 242 244 238 237 237 237 236 234 236 247 221 229
243 248 249 268 271 280 277 279 284 287 291 299 302 308 320 323 326 318 318 321 323 332 335 341 327 339 287 298 297 286 267 262 266 266 261 257 254 248 248 245 237 241 248 248 243 241 243 242 235 231 229 235 240 236
234 238 253 266 272 282 277 280 286 288 293 297 299 308 316 326 326 315 318 324 334 343 342 347 348 346 337 320 308 297 282 277 281 276 269 260 250 237 235 239 244 252 260 257 247 243 247 245 238 231 222 219 192 224
227 242 258 265 271 285 283 280 286 290 294 294 298 306 317 324 320 323 318 320 336 344 351 359 10 9 350 353 340 321 307 298 317 309 264 239 225 220 229 250 257 255 253 248 242 248 249 245 242 235 241 245 221 219
236 246 261 267 275 290 283 281 283 290 292 294 299 308 315 330 328 320 323 325 332 341 349 3 2 7 12 52 29 2 350 7 28 23 41 235 217 230 246 255 250 231 230 242 250 244 238 232 231 233 242 248 214 207
239 247 260 266 281 294 288 278 279 283 283 291 300 309 314 318 317 317 312 312 326 338 343 351 353 1 7 7 12 24 3 9 11 309 295 260 263 267 261 260 256 247 236 230 226 221 221 248 244 230 187 204 204 206
241 255 262 271 285 297 294 279 275 282 285 291 297 304 308 316 315 305 308 298 315 331 351 357 2 360 8 1 335 326 332 7 18 5 355 285 266 311 327 330 74 172 198 208 202 180 163 151 150 166 170 155 147 157
249 259 266 277 290 295 291 276 267 271 281 285 294 301 307 310 304 295 289 259 294 332 359 8 349 17 35 35 56 66 54 37 1 274 29 63 53 96 100 101 106 126 140 145 140 144 157 180 163 166 163 168 185 210
253 258 269 282 289 291 285 275 269 271 279 273 295 303 310 309 300 305 310 310 315 310 336 21 18 36 50 62 61 48 51 59 57 52 53 59 65 77 101 106 110 139 136 139 150 172 189 203 184 195 206 118 62 34
248 257 270 284 287 287 275 269 270 275 277 283 295 305 307 310 308 310 302 244 268 286 331 352 354 35 85 85 332 343 46 39 58 65 62 64 65 65 64 66 62 59 53 55 54 51 51 44 39 35 340 290 284 281
246 261 280 288 291 283 279 275 264 259 268 287 289 300 300 296 294 292 290 254 238 251 250 269 298 292 28 349 17 46 63 49 45 54 62 64 63 65 65 65 64 67 70 75 82 83 91 266 285 298 296 293 293 291
249 271 283 291 291 287 275 253 246 246 268 271 280 292 296 284 303 275 255 225 217 239 249 245 243 247 274 101 299 338 61 47 42 61 56 48 47 45 39 33 27 24 17 6 356 352 344 335 322 311 307 307 306 303
269 284 289 292 285 273 247 238 240 254 255 263 273 288 304 303 311 295 244 215 213 223 234 233 227 256 269 266 219 197 204 60 61 32 6 11 6 359 22 25 7 355 354 351 345 340 332 328 327 327 325 321 316 316
279 288 290 288 278 253 236 209 249 249 253 256 262 280 293 308 327 318 255 233 233 229 224 219 228 246 255 260 252 241 205 324 346 347 344 333 331 355 351 344 345 340 339 339 334 326 323 317 314 312 311 310 310 308
286 288 286 277 249 232 222 227 240 256 232 243 249 273 276 272 269 289 275 269 203 197 200 217 247 244 240 233 224 236 252 282 311 320 318 314 320 328 338 340 338 337 336 332 325 319 314 311 313 313 311 310 308 309
Height
5804 5803 5802 5800 5799 5797 5795 5793 5791 5788 5786 5784 5781 5779 5776 5774 5772 5771 5769 5767 5767 5766 5764 5764 5763 5763 5762 5762 5763 5764 5765 5763 5763 5763 5763 5762 5763 5758 5758 5760 5762 5759 5760 5761 5762 5765 5771 5775 5773 5781 5786 5793 5804 5806
5800 5799 5798 5796 5795 5793 5791 5788 5786 5783 5780 5778 5775 5773 5771 5768 5766 5764 5763 5761 5759 5758 5758 5756 5755 5755 5754 5754 5755 5756 5757 5756 5757 5756 5756 5757 5756 5751 5748 5755 5756 5755 5748 5749 5741 5758 5764 5769 5768 5771 5771 5781 5767 5792
5797 5795 5793 5791 5789 5787 5785 5782 5780 5777 5775 5772 5769 5767 5765 5763 5760 5757 5755 5753 5751 5750 5750 5747 5747 5746 5746 5746 5746 5748 5749 5749 5748 5748 5748 5748 5749 5748 5742 5748 5745 5738 5745 5741 5745 5751 5752 5757 5758 5757 5763 5759 5746 5781
5791 5789 5787 5785 5783 5781 5779 5776 5773 5771 5768 5765 5762 5760 5757 5755 5753 5750 5747 5744 5741 5739 5738 5738 5736 5737 5735 5736 5737 5738 5740 5739 5741 5741 5740 5743 5744 5744 5742 5741 5740 5737 5743 5741 5739 5745 5745 5743 5742 5729 5718 5740 5769 5777
5785 5783 5781 5780 5778 5776 5773 5770 5768 5765 5762 5759 5755 5752 5750 5747 5744 5742 5740 5736 5731 5729 5727 5727 5722 5723 5725 5724 5726 5727 5729 5730 5731 5732 5733 5735 5737 5737 5735 5738 5737 5737 5733 5730 5729 5737 5728 5731 5720 5714 5708 5741 5763 5769
5780 5778 5776 5774 5772 5771 5768 5765 5762 5759 5755 5751 5748 5744 5742 5739 5736 5732 5730 5726 5721 5718 5715 5715 5712 5711 5710 5710 5713 5715 5718 5720 5722 5724 5726 5727 5730 5729 5729 5733 5735 5726 5730 5731 5723 5730 5728 5732 5729 5737 5743 5751 5758 5763
5774 5773 5771 5769 5767 5765 5762 5759 5756 5752 5748 5744 5741 5738 5735 5732 5728 5725 5721 5717 5713 5709 5705 5703 5700 5698 5698 5697 5699 5701 5705 5709 5712 5714 5717 5720 5722 5721 5723 5727 5730 5730 5722 5724 5721 5714 5723 5733 5735 5739 5744 5750 5754 5760
5768 5767 5765 5763 5761 5759 5756 5753 5750 5747 5743 5740 5736 5732 5729 5726 5723 5718 5714 5710 5706 5702 5697 5693 5689 5685 5681 5682 5683 5689 5693 5697 5701 5706 5708 5712 5715 5714 5715 5720 5721 5722 5722 5721 5714 5716 5728 5728 5728 5735 5740 5746 5749 5752
5761 5760 5759 5758 5756 5753 5750 5747 5744 5741 5738 5735 5731 5727 5724 5722 5718 5714 5709 5704 5700 5697 5690 5684 5678 5672 5662 5664 5669 5669 5678 5686 5692 5696 5700 5703 5706 5707 5713 5713 5713 5715 5714 5715 5719 5721 5725 5725 5722 5725 5735 5740 5744 5745
5754 5754 5753 5752 5750 5748 5745 5741 5738 5736 5733 5730 5726 5722 5719 5717 5713 5711 5705 5701 5696 5691 5685 5679 5673 5664 5656 5657 5668 5668 5673 5677 5682 5688 5691 5693 5699 5702 5704 5706 5708 5709 5708 5710 5714 5716 5715 5719 5717 5720 5726 5731 5735 5738
5747 5747 5746 5746 5744 5742 5739 5736 5733 5730 5728 5725 5722 5719 5716 5713 5710 5706 5703 5698 5694 5688 5682 5676 5670 5665 5661 5659 5658 5663 5665 5665 5672 5680 5682 5685 5691 5693 5693 5698 5701 5701 5702 5703 5705 5710 5712 5711 5714 5716 5718 5718 5721 5716
5740 5740 5740 5739 5738 5736 5733 5731 5728 5726 5724 5721 5718 5715 5712 5708 5705 5703 5699 5695 5690 5685 5680 5675 5671 5668 5666 5664 5664 5664 5661 5667 5669 5672 5676 5678 5682 5684 5686 5687 5688 5689 5692 5697 5699 5700 5701 5703 5705 5708 5711 5699 5711 5712
5732 5733 5733 5733 5732 5730 5728 5726 5723 5722 5720 5717 5714 5711 5709 5705 5701 5698 5695 5691 5687 5683 5678 5674 5670 5668 5666 5664 5663 5662 5664 5667 5668 5669 5670 5673 5673 5675 5673 5664 5656 5678 5685 5689 5693 5696 5699 5701 5704 5706 5706 5705 5708 5683
5725 5725 5726 5727 5726 5725 5723 5721 5719 5718 5716 5713 5710 5707 5705 5701 5698 5694 5691 5688 5684 5680 5676 5672 5668 5665 5663 5662 5660 5659 5661 5661 5662 5665 5664 5666 5667 5666 5668 5668 5671 5676 5679 5682 5685 5689 5691 5694 5698 5701 5703 5704 5704 5695
5719 5719 5720 5721 5720 5719 5717 5716 5714 5713 5711 5709 5706 5704 5701 5698 5694 5691 5687 5684 5682 5677 5673 5668 5665 5662 5660 5659 5658 5657 5657 5658 5659 5658 5658 5659 5660 5660 5660 5662 5666 5669 5673 5675 5678 5681 5684 5687 5691 5693 5695 5698 5700 5701
5712 5713 5714 5715 5715 5713 5712 5711 5710 5709 5707 5705 5702 5700 5697 5694 5691 5687 5683 5680 5676 5672 5669 5664 5661 5658 5655 5654 5654 5653 5653 5653 5653 5653 5653 5653 5655 5654 5657 5659 5661 5663 5666 5668 5671 5674 5676 5679 5683 5685 5686 5690 5692 5691
5706 5708 5709 5709 5709 5708 5707 5706 5705 5704 5703 5701 5699 5696 5692 5689 5687 5683 5679 5676 5672 5669 5664 5661 5657 5654 5651 5648 5648 5647 5647 5647 5646 5647 5649 5648 5651 5653 5654 5656 5656 5658 5660 5662 5665 5667 5670 5673 5675 5677 5682 5676 5677 5684
5700 5702 5703 5703 5703 5703 5702 5701 5700 5700 5698 5696 5694 5691 5689 5686 5683 5678 5676 5673 5669 5665 5660 5656 5651 5647 5643 5641 5641 5641 5641 5640 5638 5639 5641 5642 5645 5646 5647 5649 5650 5651 5653 5655 5658 5660 5662 5665 5668 5671 5672 5673 5673 5677
5695 5696 5697 5698 5698 5697 5697 5697 5696 5695 5693 5692 5689 5688 5685 5682 5679 5676 5672 5668 5664 5660 5656 5650 5645 5640 5636 5633 5634 5633 5633 5633 5633 5633 5634 5635 5637 5638 5639 5641 5643 5645 5647 5648 5651 5653 5655 5657 5660 5661 5664 5660 5668 5669
5689 5691 5692 5693 5693 5693 5692 5692 5691 5690 5689 5687 5685 5683 5681 5678 5675 5671 5668 5664 5662 5657 5652 5646 5640 5634 5629 5628 5628 5628 5628 5629 5629 5628 5628 5629 5629 5630 5632 5634 5636 5639 5640 5642 5644 5646 5648 5650 5653 5653 5656 5652 5652 5661
5684 5686 5687 5687 5688 5688 5688 5687 5686 5685 5684 5682 5681 5679 5677 5675 5671 5667 5664 5662 5658 5653 5649 5643 5636 5631 5629 5627 5626 5625 5625 5624 5623 5622 5622 5622 5623 5625 5628 5631 5632 5634 5635 5636 5639 5641 5641 5643 5645 5649 5651 5647 5640 5652
5680 5682 5683 5683 5684 5683 5683 5682 5682 5681 5680 5678 5676 5675 5673 5670 5667 5664 5661 5659 5656 5652 5648 5643 5636 5633 5630 5627 5625 5624 5623 5621 5619 5618 5617 5618 5620 5623 5625 5627 5628 5628 5629 5631 5633 5636 5635 5637 5639 5642 5644 5644 5645 5649
5676 5678 5678 5679 5679 5679 5679 5677 5677 5675 5675 5673 5672 5671 5668 5666 5664 5661 5658 5656 5654 5650 5647 5643 5638 5635 5631 5629 5626 5624 5623 5621 5620 5619 5618 5618 5620 5621 5621 5620 5621 5623 5623 5626 5628 5628 5629 5631 5634 5637 5639 5642 5642 5644
5672 5673 5674 5674 5675 5674 5673 5672 5672 5671 5670 5669 5668 5666 5665 5662 5660 5658 5655 5654 5653 5651 5646 5643 5640 5637 5633 5631 5629 5626 5623 5621 5621 5620 5618 5619 5618 5618 5616 5615 5616 5617 5620 5620 5621 5622 5623 5625 5626 5631 5634 5639 5639 5641
5669 5670 5671 5670 5670 5669 5668 5668 5667 5667 5666 5665 5664 5663 5662 5659 5657 5654 5653 5653 5653 5651 5647 5643 5642 5639 5634 5631 5631 5629 5627 5625 5622 5620 5618 5617 5616 5615 5614 5611 5611 5613 5615 5616 5618 5618 5620 5625 5627 5631 5634 5638 5640 5642
5664 5666 5666 5666 5666 5665 5663 5663 5663 5662 5661 5661 5660 5659 5658 5656 5654 5651 5650 5651 5650 5649 5648 5646 5643 5641 5637 5634 5633 5631 5630 5627 5624 5622 5621 5620 5620 5619 5619 5618 5616 5616 5618 5617 5619 5621 5624 5626 5628 5631 5634 5636 5638 5640
5661 5662 5662 5662 5661 5660 5659 5659 5659 5659 5658 5658 5658 5656 5654 5653 5651 5649 5649 5648 5648 5649 5648 5648 5646 5644 5643 5641 5639 5638 5635 5633 5632 5631 5629 5627 5626 5623 5622 5622 5622 5623 5624 5624 5626 5627 5628 5630 5632 5634 5635 5636 5637 5638
5658 5658 5658 5658 5656 5655 5655 5655 5654 5655 5655 5655 5655 5653 5652 5650 5650 5649 5648 5648 5648 5648 5648 5647 5646 5646 5645 5643 5641 5639 5640 5639 5636 5635 5635 5634 5633 5631 5630 5629 5629 5629 5629 5630 5631 5632 5633 5634 5635 5636 5637 5637 5638 5638
5654 5654 5654 5653 5652 5651 5651 5651 5652 5652 5653 5652 5652 5650 5649 5648 5648 5647 5646 5646 5646 5647 5648 5648 5647 5646 5646 5644 5643 5642 5643 5641 5641 5639 5638 5637 5637 5636 5636 5635 5635 5635 5635 5636 5636 5637 5637 5637 5637 5636 5636 5636 5635 5635
5650 5650 5650 5649 5648 5647 5648 5648 5649 5649 5649 5649 5649 5648 5646 5645 5645 5644 5644 5644 5645 5645 5646 5647 5647 5646 5645 5646 5645 5645 5646 5643 5644 5642 5641 5641 5640 5640 5639 5638 5637 5637 5636 5636 5636 5636 5635 5634 5634 5633 5633 5632 5631 5630
5646 5646 5646 5645 5644 5644 5644 5644 5645 5646 5646 5645 5645 5645 5643 5643 5642 5642 5642 5643 5644 5644 5646 5646 5647 5647 5646 5646 5646 5646 5646 5645 5644 5644 5643 5643 5642 5641 5640 5639 5638 5637 5636 5635 5634 5632 5631 5630 5628 5627 5627 5626 5625 5623
5643 5642 5642 5641 5641 5641 5641 5642 5643 5643 5643 5642 5641 5642 5641 5640 5640 5640 5639 5640 5641 5643 5644 5645 5646 5646 5646 5646 5646 5645 5645 5645 5645 5644 5644 5643 5642 5641 5640 5639 5638 5636 5634 5633 5632 5631 5630 5629 5627 5626 5624 5623 5622 5620
5639 5639 5638 5638 5636 5637 5638 5639 5639 5641 5640 5639 5637 5640 5639 5640 5640 5639 5639 5638 5639 5641 5642 5644 5644 5645 5644 5644 5645 5645 5645 5645 5645 5644 5643 5642 5641 5640 5639 5637 5636 5634 5633 5632 5631 5630 5628 5627 5625 5623 5621 5619 5618 5616